#timestamp,LO_Frequency,Hit,StdDev 
1609894815.4,286046996.6,P
1609894835.2,286046999.3,N
1609894855.0,286046998.1,N
1609894855.9,286046998.1,N
1609894875.8,286046999.9,N
1609894895.6,286047001.6,N
1609894915.4,286047001.5,N
1609894935.3,286046999.8,N
1609894955.1,286047001.0,N
1609894975.9,286046998.7,N
1609894995.7,286046998.9,N
1609895015.5,286046998.8,N
1609895035.4,286047001.2,N
1609895055.2,286046998.9,N
1609895075.0,286046997.3,N
1609895076.0,286046997.3,N
1609895095.8,286046996.7,N
1609895115.6,286046996.9,N
1609895135.5,286046996.9,N
1609895155.3,286046997.8,N
1609895175.1,286046997.9,N
1609895195.9,286046995.6,N
1609895215.7,286046998.0,N
1609895235.6,286046996.8,N
1609895255.4,286046999.3,N
1609895275.2,286046999.4,N
1609895295.1,286046999.3,N
1609895296.0,286046999.3,N
1609895315.8,286046999.0,N
1609895335.7,286046999.4,N
1609895355.5,286046998.8,N
1609895375.3,286046998.8,N
1609895395.2,286047000.0,N
1609895415.0,286047000.3,N
1609895415.9,286047000.3,N
1609895435.7,286046999.0,N
1609895455.6,286046998.2,N
1609895475.4,286046998.1,N
1609895495.3,286047000.5,N
1609895515.1,286047000.1,N
1609895535.8,286047000.2,N
1609895555.7,286047000.4,N
1609895575.5,286047000.0,N
1609895595.4,286047000.4,N
1609895615.2,286047000.4,N
1609895635.0,286046999.1,N
1609895635.9,286046999.1,N
1609895655.8,286047000.9,N
1609895675.6,286047000.9,N
1609895695.4,286047000.6,N
1609895715.3,286047001.2,N
1609895735.1,286047000.7,N
1609895755.9,286046998.7,N
1609895775.7,286047001.0,N
1609895795.5,286047000.9,N
1609895815.4,286047000.0,N
1609895835.2,286047000.7,N
1609895855.1,286046999.0,N
1609895856.0,286046999.0,N
1609895875.8,286046998.3,N
1609895895.6,286047001.1,N
1609895915.5,286047000.8,N
1609895935.3,286046999.9,N
1609895955.1,286047000.0,N
1609895975.9,286046999.8,N
1609895995.7,286047002.2,N
1609896015.6,286047001.5,N
1609896035.4,286047001.8,N
1609896055.2,286047001.5,N
1609896075.1,286047001.8,N
1609896076.0,286047001.8,N
1609896095.8,286047001.5,N
1609896115.7,286047002.6,N
1609896135.5,286047001.0,N
1609896155.3,286047000.2,N
1609896175.2,286047000.4,N
1609896195.0,286047000.1,N
1609896195.9,286047000.1,N
1609896215.8,286046999.8,N
1609896235.6,286047000.6,N
1609896255.4,286047000.2,N
1609896275.3,286047000.0,N
1609896295.1,286046998.4,N
1609896315.8,286046998.5,N
1609896335.7,286046998.4,N
1609896355.5,286046998.4,N
1609896375.4,286046998.4,N
1609896395.2,286046999.3,N
1609896415.0,286046998.1,N
1609896415.9,286046998.1,N
1609896435.8,286047000.7,N
1609896455.6,286046998.3,N
1609896475.5,286046999.9,N
1609896495.3,286046998.4,N
1609896515.1,286047000.3,N
1609896535.9,286047000.6,N
1609896555.7,286047000.3,N
1609896575.5,286047000.8,N
1609896595.4,286046998.6,N
1609896645.3,286046998.1,E
1609896655.2,286047000.0,N
1609896675.0,286046999.8,P
1609896675.9,286046999.8,N
1609896695.8,286047000.3,N
1609896715.6,286047001.0,Y
1609896735.4,286046998.4,P
1609896755.3,286046999.1,N
1609896775.1,286046998.2,N
1609896795.8,286047000.2,N
1609896815.7,286046999.9,N
1609896835.5,286047002.0,N
1609896855.4,286047000.1,N
1609896875.2,286047001.0,N
1609896895.0,286047002.4,N
1609896895.9,286047002.4,N
1609896915.8,286047000.6,N
1609896935.6,286047000.5,N
1609896955.5,286047000.0,N
1609896975.3,286047002.4,N
1609896995.1,286047000.9,N
1609897015.9,286047000.6,N
1609897035.7,286047000.5,N
1609897055.5,286047002.0,N
1609897075.4,286047002.2,N
1609897095.2,286047001.8,N
1609897115.1,286047001.5,N
1609897116.0,286047001.5,N
1609897135.8,286047002.6,N
1609897155.6,286047002.7,N
1609897175.5,286046999.9,N
1609897195.3,286046999.9,N
1609897215.2,286047000.4,N
1609897235.9,286047002.4,N
1609897255.7,286047002.1,N
1609897275.6,286047002.2,N
1609897295.4,286047001.7,N
1609897315.2,286047001.6,N
1609897335.1,286047001.8,N
1609897336.0,286047001.8,N
1609897355.8,286046999.8,N
1609897375.7,286047002.2,N
1609897395.5,286046999.7,N
1609897415.3,286047002.2,N
1609897435.2,286047002.1,N
1609897455.0,286047004.4,Y
1609897455.9,286047004.4,P
1609897475.8,286047002.8,N
1609897495.6,286047002.1,N
1609897515.4,286047002.4,N
1609897535.3,286047000.7,N
1609897555.1,286047000.2,N
1609897575.9,286047000.5,N
1609897595.7,286047000.5,N
1609897615.5,286047000.6,N
1609897635.4,286046998.2,N
1609897655.2,286047000.7,N
1609897675.0,286047000.9,N
1609897675.9,286047000.9,N
1609897695.8,286047000.1,N
1609897715.6,286047001.5,N
1609897735.5,286047003.8,N
1609897755.3,286047004.4,Y
1609897775.1,286047000.8,P
1609897795.9,286047000.0,N
1609897815.7,286046999.8,N
1609897835.6,286046999.3,N
1609897855.4,286046998.9,N
1609897875.2,286046998.7,N
1609897895.1,286047001.1,N
1609897896.0,286047001.1,N
1609897915.8,286046999.7,N
1609897935.7,286047002.4,N
1609897955.5,286047000.3,N
1609897975.3,286046999.8,N
1609897995.2,286047000.2,N
1609898015.0,286047001.1,N
1609898015.9,286047001.1,N
1609898035.7,286046998.2,N
1609898055.6,286046998.1,N
1609898075.4,286046999.0,N
1609898095.3,286046999.0,N
1609898115.1,286046999.0,N
1609898116.0,286046999.0,N
1609898135.8,286046998.9,N
1609898155.7,286046998.5,N
1609898175.5,286046999.4,N
1609898195.4,286046996.6,Y
1609898215.2,286046998.2,P
1609898235.0,286046999.4,N
1609898235.9,286046999.4,N
1609898255.8,286046996.6,Y
1609898275.6,286046998.4,P
1609898295.5,286046998.6,P
1609898315.3,286047000.0,N
1609898335.1,286047000.0,N
1609898355.9,286046999.7,N
1609898405.7,286047000.7,E
